EW6103 Weather Reports


time (UTC)temp
C
wind
direction
speed
KPH
gust
KPH
rain 1hr
cm
rain 24hr
cm
rain mn
cm
humidity
%
barometer
mb
20260505231009 16 180 1.6 4.8 0.00 0.00 0.00 60 1004.4
20260505230014 16 180 1.6 6.4 0.00 0.00 0.00 59 1004.4
20260505225007 17 180 4.8 8.0 0.00 0.00 0.00 57 1004.4
20260505224009 17 180 4.8 6.4 0.00 0.00 0.00 56 1004.4
20260505223015 17 180 3.2 6.4 0.00 0.00 0.00 56 1004.5
20260505222009 17 135 6.4 9.7 0.00 0.00 0.00 57 1003.4
20260505221009 17 0 6.4 14.5 0.00 0.00 0.00 57 1003.2
20260505220015 17 135 6.4 11.3 0.00 0.00 0.00 57 1003.1
20260505215008 16 135 6.4 9.7 0.00 0.00 0.00 59 1003.2
20260505214009 16 90 3.2 6.4 0.00 0.00 0.00 63 1003.4
20260505213009 16 90 3.2 6.4 0.00 0.00 0.00 64 1003.4
20260505212012 16 90 1.6 4.8 0.00 0.00 0.00 70 1003.3
20260505211010 16 90 1.6 3.2 0.00 0.00 0.00 71 1003.4
20260505210013 16 90 1.6 4.8 0.00 0.00 0.00 71 1003.3
20260505205008 16 180 1.6 4.8 0.00 0.00 0.00 71 1003.2
20260505204009 16 180 1.6 4.8 0.00 0.00 0.00 71 1003.3
20260505203009 16 225 1.6 3.2 0.00 0.00 0.00 72 1003.4
20260505202009 17 0 0.0 1.6 0.00 0.00 0.00 69 1003.2
20260505201008 16 135 1.6 4.8 0.00 0.00 0.00 69 1003.2
20260505200013 17 90 1.6 4.8 0.00 0.00 0.00 68 1003.2
20260505195007 17 45 0.0 3.2 0.00 0.00 0.00 66 1003.3
20260505194008 17 90 3.2 6.4 0.00 0.00 0.00 66 1003.4
20260505193007 18 0 3.2 6.4 0.00 0.00 0.00 65 1003.1
20260505191010 17 0 0.0 1.6 0.00 0.00 0.00 66 1003.3
20260505185009 18 45 3.2 6.4 0.00 0.00 0.00 63 1003.0
20260505184009 18 0 0.0 3.2 0.00 0.00 0.00 63 1003.0
20260505183011 18 0 3.2 6.4 0.00 0.00 0.00 61 1002.9
20260505182010 19 0 4.8 8.0 0.00 0.00 0.00 60 1003.0
20260505181010 19 0 12.9 17.7 0.00 0.00 0.00 58 1003.0
20260505180012 20 0 11.3 17.7 0.00 0.00 0.00 55 1002.8
20260505174008 21 90 0.0 1.6 0.00 0.00 0.00 45 1002.4
20260505173011 21 90 1.6 3.2 0.00 0.00 0.00 44 1002.4
20260505172009 22 90 1.6 3.2 0.00 0.00 0.00 44 1002.4
20260505171009 22 90 3.2 6.4 0.00 0.00 0.00 43 1002.5
20260505170012 22 90 3.2 6.4 0.00 0.00 0.00 42 1002.4
20260505165009 22 135 3.2 4.8 0.00 0.00 0.00 41 1002.4
20260505163011 23 90 4.8 8.0 0.00 0.00 0.00 38 1002.4
20260505162005 23 135 6.4 12.9 0.00 0.00 0.00 38 1002.4
20260505161008 24 135 6.4 11.3 0.00 0.00 0.00 37 1002.5
20260505153011 27 180 6.4 16.1 0.00 0.00 0.00 36 1002.2
20260505152011 27 180 6.4 14.5 0.00 0.00 0.00 37 1002.3
20260505151009 27 135 6.4 11.3 0.00 0.00 0.00 34 1002.2
20260505125009 26 90 3.2 6.4 0.00 0.00 0.00 35 1004.0
20260505124007 26 225 6.4 11.3 0.00 0.00 0.00 39 1004.2
20260505122010 25 180 6.4 11.3 0.00 0.00 0.00 36 1004.5
20260505121009 25 225 4.8 11.3 0.00 0.00 0.00 36 1004.5
20260505120014 25 225 4.8 11.3 0.00 0.00 0.00 37 1004.7
20260505115012 24 225 6.4 9.7 0.00 0.00 0.00 38 1004.7
20260505113011 25 135 4.8 16.1 0.00 0.00 0.00 38 1004.7
20260505112007 24 225 3.2 6.4 0.00 0.00 0.00 39 1005.0
20260505111008 23 180 3.2 6.4 0.00 0.00 0.00 39 1005.2
20260505102008 22 135 3.2 6.4 0.00 0.00 0.00 43 1006.0
20260505100017 22 135 4.8 16.1 0.00 0.00 0.00 40 1005.9
20260505095009 22 180 6.4 11.3 0.00 0.00 0.00 39 1006.0
20260505094009 21 180 6.4 16.1 0.00 0.00 0.00 41 1006.0
20260505093011 22 135 4.8 9.7 0.00 0.00 0.00 39 1006.1
20260505092009 21 180 4.8 11.3 0.00 0.00 0.00 42 1006.3
20260505091006 21 135 4.8 9.7 0.00 0.00 0.00 39 1006.3
20260505084009 21 135 4.8 9.7 0.00 0.00 0.00 41 1006.6
20260505083010 21 90 4.8 9.7 0.00 0.00 0.00 42 1006.7
20260505082009 21 90 3.2 9.7 0.00 0.00 0.00 43 1006.7
20260505081009 20 180 4.8 11.3 0.00 0.00 0.00 42 1007.0
20260505080015 20 135 6.4 12.9 0.00 0.00 0.00 44 1007.0
20260505075008 20 135 6.4 12.9 0.00 0.00 0.00 43 1007.1
20260505074007 20 90 6.4 9.7 0.00 0.00 0.00 44 1007.3
20260505073009 19 135 4.8 9.7 0.00 0.00 0.00 44 1007.5
20260505072009 19 90 6.4 11.3 0.00 0.00 0.00 44 1007.4
20260505071010 18 180 6.4 11.3 0.00 0.00 0.00 44 1007.6
20260505065008 17 180 6.4 14.5 0.00 0.00 0.00 45 1007.6
20260505063010 17 135 4.8 11.3 0.00 0.00 0.00 45 1007.6
20260505061009 16 90 4.8 9.7 0.00 0.00 0.00 49 1007.5
20260505060013 16 135 6.4 12.9 0.00 0.00 0.00 49 1007.4
20260505055008 16 135 6.4 11.3 0.00 0.00 0.00 48 1007.2
20260505053009 16 135 4.8 8.0 0.00 0.00 0.00 51 1007.5
20260505051008 15 90 6.4 11.3 0.00 0.00 0.00 50 1007.4
20260505040012 12 45 0.0 1.6 0.00 0.00 0.00 70 1008.5
20260505035008 12 45 0.0 1.6 0.00 0.00 0.00 70 1008.5
20260505034008 11 0 0.0 3.2 0.00 0.00 0.00 71 1008.6
20260505033009 12 0 0.0 1.6 0.00 0.00 0.00 69 1008.4
20260505032009 12 90 1.6 3.2 0.00 0.00 0.00 70 1008.5
20260505031009 12 90 1.6 3.2 0.00 0.00 0.00 73 1008.8
20260505030017 12 0 1.6 3.2 0.00 0.00 0.00 71 1008.8
20260505025007 12 45 1.6 4.8 0.00 0.00 0.00 69 1008.9
20260505024007 12 0 1.6 4.8 0.00 0.00 0.00 72 1009.1
20260505023010 11 45 1.6 4.8 0.00 0.00 0.00 75 1009.2
20260505022007 11 0 0.0 1.6 0.00 0.00 0.00 74 1009.2
20260505021009 11 45 0.0 3.2 0.00 0.00 0.00 72 1009.4
20260505015008 11 45 1.6 6.4 0.00 0.00 0.00 75 1009.8
20260505012009 11 180 0.0 1.6 0.00 0.00 0.00 75 1010.0
20260505011008 11 0 1.6 6.4 0.00 0.00 0.00 73 1010.0
20260505002008 14 45 0.0 1.6 0.00 0.00 0.00 64 1010.1
20260505000011 15 45 1.6 3.2 0.00 0.00 0.00 62 1010.0
20260504235007 15 45 1.6 4.8 0.00 0.00 0.00 62 1010.1